• In Uzbekistan
  • List of Countries
  • For 7 days
  • Water Temperature
  • Weather Map
  • Weather Widgets
  • user-avatar
    Login

    Hourly Weather San Miguel de Tucumán

    Today, 22 November, Friday

    Time Temperature Precipitation Wind Pressure Humidity
    00:00 +28°C° 0.1 mm 1 mps 716 mmHg 70%
    01:00 +28°C° 0.1 mm 1 mps 716 mmHg 70%
    02:00 +27°C° 0 mm 1 mps 716 mmHg 71%
    03:00 +26°C° 0.5 mm 1 mps 716 mmHg 75%
    04:00 +26°C° 0.5 mm 2 mps 717 mmHg 80%
    05:00 +25°C° 0.5 mm 2 mps 717 mmHg 84%
    06:00 +26°C° 0.6 mm 2 mps 718 mmHg 81%
    07:00 +27°C° 0.6 mm 3 mps 719 mmHg 77%
    08:00 +28°C° 0 mm 3 mps 720 mmHg 76%
    09:00 +30°C° 0.4 mm 3 mps 720 mmHg 68%
    10:00 +33°C° 0.4 mm 3 mps 720 mmHg 59%
    11:00 +35°C° 0.4 mm 3 mps 720 mmHg 50%
    12:00 +35°C° 1.3 mm 3 mps 720 mmHg 51%
    13:00 +35°C° 1.3 mm 3 mps 719 mmHg 52%
    14:00 +35°C° 1.3 mm 3 mps 719 mmHg 53%
    15:00 +34°C° 0.5 mm 3 mps 718 mmHg 53%
    16:00 +34°C° 0.5 mm 3 mps 718 mmHg 53%
    17:00 +34°C° 0.5 mm 3 mps 718 mmHg 53%
    18:00 +31°C° 0.9 mm 3 mps 718 mmHg 59%
    19:00 +30°C° 0.9 mm 2 mps 719 mmHg 65%
    20:00 +28°C° 0.9 mm 2 mps 720 mmHg 71%
    21:00 +27°C° 2.9 mm 1 mps 720 mmHg 76%
    22:00 +27°C° 2.9 mm 1 mps 721 mmHg 80%
    23:00 +26°C° 2.9 mm 1 mps 721 mmHg 85%

    Tomorrow, 23 November, Saturday

    Time Temperature Precipitation Wind Pressure Humidity
    00:00 +25°C° 2.3 mm 1 mps 721 mmHg 88%
    01:00 +25°C° 2.3 mm 1 mps 721 mmHg 91%
    02:00 +24°C° 2.3 mm 2 mps 721 mmHg 94%
    03:00 +24°C° 0.3 mm 1 mps 721 mmHg 94%
    04:00 +24°C° 0.3 mm 1 mps 721 mmHg 94%
    05:00 +22°C° 0.3 mm 0 mps 721 mmHg 93%
    06:00 +24°C° 0.4 mm 1 mps 721 mmHg 92%
    07:00 +25°C° 0.4 mm 1 mps 721 mmHg 91%
    08:00 +25°C° 0.4 mm 1 mps 722 mmHg 89%
    09:00 +26°C° 0.2 mm 1 mps 722 mmHg 84%
    10:00 +27°C° 0.2 mm 1 mps 721 mmHg 79%
    11:00 +28°C° 0.2 mm 1 mps 721 mmHg 74%
    12:00 +29°C° 0.6 mm 1 mps 720 mmHg 71%
    13:00 +30°C° 0.6 mm 1 mps 720 mmHg 69%
    14:00 +31°C° 0.6 mm 1 mps 719 mmHg 66%
    15:00 +30°C° 1.6 mm 1 mps 718 mmHg 70%
    16:00 +29°C° 1.6 mm 1 mps 717 mmHg 75%
    17:00 +28°C° 1.6 mm 1 mps 717 mmHg 79%
    18:00 +28°C° 0.2 mm 1 mps 717 mmHg 81%
    19:00 +27°C° 0.2 mm 1 mps 717 mmHg 84%
    20:00 +26°C° 0.2 mm 1 mps 717 mmHg 87%
    21:00 +25°C° 0.1 mm 1 mps 718 mmHg 86%
    22:00 +25°C° 0.1 mm 1 mps 718 mmHg 86%
    23:00 +25°C° 0.1 mm 1 mps 718 mmHg 86%

    Day after tomorrow, 24 November, Sunday

    Time Temperature Precipitation Wind Pressure Humidity
    00:00 +25°C° 0.1 mm 1 mps 718 mmHg 86%
    01:00 +25°C° 0.1 mm 1 mps 717 mmHg 86%
    02:00 +25°C° 0.1 mm 1 mps 717 mmHg 86%
    03:00 +25°C° 0.1 mm 1 mps 717 mmHg 87%
    04:00 +25°C° 0.1 mm 1 mps 716 mmHg 88%
    05:00 +25°C° 0.1 mm 1 mps 716 mmHg 89%
    06:00 +25°C° 0.1 mm 1 mps 716 mmHg 87%
    07:00 +25°C° 0.1 mm 2 mps 716 mmHg 85%
    08:00 +25°C° 0.1 mm 2 mps 716 mmHg 83%
    09:00 +27°C° 0 mm 2 mps 716 mmHg 76%
    10:00 +29°C° 0 mm 2 mps 716 mmHg 69%
    11:00 +31°C° 0 mm 2 mps 716 mmHg 61%
    12:00 +32°C° 0 mm 2 mps 715 mmHg 59%
    13:00 +34°C° 0 mm 2 mps 713 mmHg 56%
    14:00 +34°C° 0 mm 2 mps 712 mmHg 53%
    15:00 +34°C° 0 mm 2 mps 712 mmHg 54%
    16:00 +34°C° 0 mm 2 mps 711 mmHg 55%
    17:00 +34°C° 0 mm 2 mps 710 mmHg 56%
    18:00 +32°C° 0 mm 2 mps 711 mmHg 61%
    19:00 +30°C° 0 mm 2 mps 711 mmHg 66%
    20:00 +29°C° 0 mm 2 mps 711 mmHg 71%
    21:00 +28°C° 0 mm 2 mps 711 mmHg 71%
    22:00 +28°C° 0 mm 2 mps 711 mmHg 71%
    23:00 +28°C° 0 mm 1 mps 712 mmHg 71%

    25 November, Monday

    Time Temperature Precipitation Wind Pressure Humidity
    00:00 +27°C° 0 mm 1 mps 711 mmHg 73%
    01:00 +27°C° 0 mm 1 mps 710 mmHg 74%
    02:00 +26°C° 0 mm 1 mps 709 mmHg 75%
    03:00 +26°C° 0 mm 1 mps 709 mmHg 75%
    04:00 +26°C° 0 mm 1 mps 709 mmHg 75%
    05:00 +26°C° 0 mm 1 mps 709 mmHg 75%
    06:00 +27°C° 0 mm 1 mps 710 mmHg 71%
    07:00 +29°C° 0 mm 2 mps 710 mmHg 67%
    08:00 +30°C° 0 mm 3 mps 711 mmHg 63%
    09:00 +33°C° 0 mm 4 mps 711 mmHg 59%
    10:00 +34°C° 0 mm 4 mps 712 mmHg 55%
    11:00 +35°C° 0 mm 5 mps 712 mmHg 51%
    12:00 +35°C° 0 mm 5 mps 712 mmHg 49%
    13:00 +35°C° 0 mm 5 mps 712 mmHg 48%
    14:00 +35°C° 0 mm 5 mps 711 mmHg 46%
    15:00 +35°C° 0.1 mm 4 mps 711 mmHg 48%
    16:00 +34°C° 0.1 mm 4 mps 711 mmHg 49%
    17:00 +34°C° 0.1 mm 3 mps 711 mmHg 50%
    18:00 +31°C° 0.5 mm 3 mps 712 mmHg 59%
    19:00 +29°C° 0.5 mm 3 mps 713 mmHg 68%
    20:00 +26°C° 0.5 mm 2 mps 713 mmHg 77%
    21:00 +25°C° 1.4 mm 2 mps 714 mmHg 82%
    22:00 +24°C° 1.4 mm 2 mps 714 mmHg 88%
    23:00 +23°C° 1.4 mm 1 mps 715 mmHg 93%

    26 November, Tuesday

    Time Temperature Precipitation Wind Pressure Humidity
    00:00 +23°C° 0.9 mm 2 mps 714 mmHg 94%
    01:00 +23°C° 0.9 mm 2 mps 714 mmHg 94%
    02:00 +21°C° 0.9 mm 2 mps 713 mmHg 95%
    03:00 +21°C° 0.3 mm 2 mps 713 mmHg 95%
    04:00 +21°C° 0.3 mm 2 mps 714 mmHg 94%
    05:00 +22°C° 0.3 mm 1 mps 714 mmHg 94%
    06:00 +21°C° 0.1 mm 2 mps 714 mmHg 94%
    07:00 +20°C° 0.1 mm 2 mps 715 mmHg 93%
    08:00 +20°C° 0.1 mm 2 mps 715 mmHg 92%
    09:00 +20°C° 0.1 mm 2 mps 715 mmHg 91%
    10:00 +21°C° 0.1 mm 2 mps 715 mmHg 89%
    11:00 +21°C° 0.1 mm 2 mps 715 mmHg 87%
    12:00 +21°C° 0 mm 2 mps 715 mmHg 86%
    13:00 +21°C° 0 mm 2 mps 714 mmHg 84%
    14:00 +21°C° 0 mm 3 mps 714 mmHg 83%
    15:00 +21°C° 0 mm 2 mps 714 mmHg 81%
    16:00 +23°C° 0 mm 2 mps 714 mmHg 80%
    17:00 +23°C° 0 mm 2 mps 714 mmHg 78%
    18:00 +21°C° 0 mm 2 mps 715 mmHg 78%
    19:00 +22°C° 0 mm 1 mps 716 mmHg 78%
    20:00 +22°C° 0 mm 1 mps 717 mmHg 77%
    21:00 +22°C° 0 mm 1 mps 717 mmHg 77%
    22:00 +22°C° 0 mm 1 mps 718 mmHg 77%
    23:00 +22°C° 0 mm 1 mps 719 mmHg 77%

    27 November, Wednesday

    Time Temperature Precipitation Wind Pressure Humidity
    00:00 +22°C° 0 mm 1 mps 718 mmHg 78%
    01:00 +21°C° 0 mm 1 mps 718 mmHg 79%
    02:00 +20°C° 0 mm 2 mps 718 mmHg 80%
    03:00 +20°C° 0 mm 1 mps 718 mmHg 81%
    04:00 +20°C° 0 mm 1 mps 718 mmHg 83%
    05:00 +17°C° 0 mm 0 mps 718 mmHg 85%
    06:00 +20°C° 0 mm 1 mps 718 mmHg 80%
    07:00 +22°C° 0 mm 1 mps 719 mmHg 76%
    08:00 +23°C° 0 mm 1 mps 719 mmHg 71%
    09:00 +24°C° 0 mm 1 mps 719 mmHg 67%
    10:00 +25°C° 0 mm 1 mps 719 mmHg 63%
    11:00 +26°C° 0 mm 1 mps 719 mmHg 59%
    12:00 +27°C° 0 mm 1 mps 718 mmHg 58%
    13:00 +27°C° 0 mm 1 mps 718 mmHg 57%
    14:00 +27°C° 0 mm 1 mps 717 mmHg 56%
    15:00 +27°C° 0 mm 1 mps 717 mmHg 55%
    16:00 +28°C° 0 mm 1 mps 716 mmHg 55%
    17:00 +28°C° 0 mm 1 mps 716 mmHg 54%
    18:00 +27°C° 0 mm 1 mps 716 mmHg 58%
    19:00 +26°C° 0 mm 1 mps 717 mmHg 61%
    20:00 +24°C° 0 mm 1 mps 718 mmHg 65%
    21:00 +24°C° 0 mm 1 mps 718 mmHg 67%
    22:00 +24°C° 0 mm 1 mps 718 mmHg 68%
    23:00 +24°C° 0 mm 1 mps 719 mmHg 69%
    Show more